Погода в Оборе

Россия / Хабаровский край     48°05′39″N   135°41′15″E
темп.,
°C
ветер,
м/с
пор.,
м/с
влажн.,
%
обл.,
%
осадки,
мм/ч
давл.,
гПа
погр.,
м
17 сентября, пт
пт1701:00+12ююз31196100 0.9 1012802
04:00+12ююз3996100 0.9 1012600
07:00+12ююз3898100 0.1 1013588
10:00+13юз379481 0.1 1014555
13:00+17юз456813 0.2 10141003
16:00+21юз354451 0.2 10122060
19:00+16ю38683 0.0 1012213
22:00+14ю411770 0.0 1012265
18 сентября, сб
сб1801:00+13ю413741 0.0 1012312
04:00+13ю413755 0.0 1011347
07:00+11ююз3118791 0.4 1012290
10:00+16юз41175100 0.7 1012728
13:00+19з5865100 0.3 10121403
16:00+13сз2590100 0.9 1013260
19:00+11юз2383100 0.0 101570
22:00+9юз26973 0.0 1017138
19 сентября, вс
вс1901:00+6ююз24962 0.0 101876
04:00+5ююз24965 0.0 101980
07:00+5ююз259588 0.0 1020104
10:00+11юз346187 0.0 1020436
13:00+14зюз3539100 0.0 10181310
16:00+14з4639100 0.0 10181434
19:00+9юз2262100 0.0 101927
22:00+7ююз35690 0.0 102086
20 сентября, пн
пн2001:00+5ююз38730 0.0 1020153
04:00+4ююз38770 0.0 1021155
07:00+4ююз38792 0.0 1022165
10:00+12юз4652100 0.0 1022469
13:00+16зюз453828 0.0 10201239
16:00+17юз343598 0.0 10181237
19:00+11ююз2257100 0.0 101823
22:00+10ю2257100 0.0 101822
21 сентября, вт
вт2101:00+9ю2265100 0.0 101727
04:00+9ю2263100 0.0 101643
07:00+9ю2363100 0.0 101652
10:00+14ю1354100 0.0 1016202
13:00+14юв1261100 0.0 1015121
16:00+16св1260100 0.0 1013329
19:00+13ссв1168100 0.0 101415
22:00+12св1173100 0.1 101319